Weather Roundup
Issued by NWS Chicago, IL

Home | Current Version | Previous Version | Graphics & Text | Print | Product List | Glossary On
Versions: 1 2 3 4 5 6 7 8 9 10 11 12 13 14 15 16 17 18 19 20 21 22 23 24 25 26 27 28 29 30 31 32 33 34 35 36 37 38 39 40 41 42 43 44 45 46 47 48 49 50
000
NZUS59 KLOT 262209
HRRLOT

CHICAGO AREA WEATHER ROUNDUP
NATIONAL WEATHER SERVICE CHICAGO/ROMEOVILLE IL
500 PM CDT THU APR 26 2018

NOTE: "FAIR" INDICATES FEW OR NO CLOUDS BELOW 12,000 FEET WITH NO
SIGNIFICANT WEATHER AND/OR OBSTRUCTIONS TO VISIBILITY.

* THESE STATIONS ARE NOT UNDER NWS QUALITY CONTROL. THEY ALSO MAY NOT
  REPORT WEATHER SUCH AS PRECIPITATION OR FOG.

ILZ005-006-012>014-019>023-262300-
NORTHEAST ILLINOIS

CITY           SKY/WX    TMP DP  RH WIND       PRES   REMARKS
OHARE          CLOUDY    65  28  24 SW7       29.85F
MIDWAY         CLOUDY    65  28  24 CALM      29.86F
AURORA           N/A     65  31  28 W7        29.85F
LANSING*         N/A     64  36  35 E3        29.87F
JOLIET*          N/A     66  29  24 W6        29.86F
WAUKEGAN         N/A     54  26  34 SE9       29.85F
DUPAGE AIRPORT   N/A     65  31  28 SW6       29.85F
WHEELING         N/A     66  29  24 SW7       29.86F
KANKAKEE*        N/A     66  30  26 N5        29.88S
MORRIS*          N/A     66  30  25 W10       29.85F HAZE
LEWIS AIRPORT*   N/A     64  31  28 W7        29.86F
NORTHERLY ISL    N/A     50  32  50 S1          N/A
$$

WIZ051-052-058>065-066-070>072-262300-
SOUTHEAST WISCONSIN

CITY           SKY/WX    TMP DP  RH WIND       PRES   REMARKS
MILWAUKEE      PTSUNNY   61  34  36 SE10      29.84S
KENOSHA*         N/A     60  29  30 S10       29.84F
RACINE*          N/A     54  27  35 S13       29.86F
BURLINGTON       N/A     65  29  25 SW10      29.83F
WAUKESHA       SUNNY     63  28  27 SW9       29.84F
WEST BEND        N/A     64  27  24 W13G21    29.81F
$$

INZ001>003-010>013-019-020-262300-
NORTHWEST INDIANA

CITY           SKY/WX    TMP DP  RH WIND       PRES   REMARKS
GARY*          PTSUNNY   61  18  18 E12       29.89F
MICHIGAN CITY* NOT AVBL
RENSSELAER*    NOT AVBL
VALPARAISO       N/A     62  20  19 N8        29.88F
$$

LMZ740>746-262300-
SOUTHERN LAKE MICHIGAN

STATION/POSITION TIME  SKY/WX   TEMP WIND        PRES    VSBY
                                AIR  DIR/SP/G
                 (UTC)          (F)  (DEG/KT/KT) (MB)    (MI)
HARRISON CRIB    2140            53  120/ 14/ 15   N/A
BURNHAM HARBOR   2200            49  100/  4/  5   N/A
CALUMET HARBOR   2148            51  100/  8/ 12 1011.2F
BURNS HARBOR     2140            49   80/  8/  8 1012.9F
MICHIGAN CITY    2140            44   50/  7/  7   N/A
$$

ABBREVIATIONS USED IN REMARKS
   TC - TEMPERATURE IN CELSIUS
  WCI - WIND CHILL INDEX
   HX - HEAT INDEX
  VSB - VISIBILITY
$$




USA.gov is the U.S. government's official web portal to all federal, state and local government web resources and services.